[ hide orbit diagram ]
For accurate long-term ephemerides, please instead use our Horizons system.This orbit viewer was implemented using two-body methods, and hence should not be used for determining accurate long-term trajectories (over several years or decades) or planetary encounter circumstances.
Orbital Elements at Epoch 2459000.5 (2020-May-31.0) TDB
Reference: JPL 22 (heliocentric ecliptic J2000)
Element | Value | Uncertainty (1-sigma) | Units |
e | .1578618577993012 | 6.6692e-08 | |
a | 2.339446911227937 | 2.4475e-08 | au |
q | 1.970137475598658 | 1.6507e-07 | au |
i | 2.980718345244818 | 7.6238e-06 | deg |
node | 194.6081034395438 | 0.00011697 | deg |
peri | 214.0480566975266 | 0.00012104 | deg |
M | 239.2964589102575 | 2.9268e-05 | deg |
tp | 2459438.713475780964 (2021-Aug-12.21347578) | 0.0001093 | TDB |
period | 1306.97782233129 3.58 | 2.0511e-05 5.616e-08 | d yr |
n | .2754446126391484 | 4.3226e-09 | deg/d |
Q | 2.708756346857216 | 2.8339e-08 | au |
|
| | Orbit Determination Parameters
Additional Information
|
[ hide covariance matrix ]
Orbital Elements at Epoch 2457285.5 (2015-Sep-20.0) TDB
Reference: JPL 22 (heliocentric ecliptic J2000)
Element | Value | Uncertainty (1-sigma) | Units |
e | .1585849463719719 | 6.6253e-08 | |
q | 1.967531421335686 | 1.637e-07 | au |
tp | 2456827.699420129501 (2014-Jun-19.19942013) | 9.7224e-05 | TDB |
node | 194.6549218954903 | 0.00011693 | deg |
peri | 214.2903807457839 | 0.00012096 | deg |
i | 2.981531684635643 | 7.6268e-06 | deg |
|
| | Orbit Determination Parameters
Additional Information
|
Orbit Covariance (6×6)
|
|
e |
q |
tp |
node |
peri |
i |
e |
4.389405016270351E-15 |
-1.077123915828758E-14 |
-3.161674979321606E-12 |
-2.72750136564854E-14 |
-1.121939645923493E-12 |
7.995575462892904E-16 |
q |
-1.077123915828758E-14 |
2.679746656993797E-14 |
7.528462914863308E-12 |
6.658840838113567E-14 |
2.720157638547267E-12 |
-1.28221181204475E-15 |
tp |
-3.161674979321606E-12 |
7.528462914863308E-12 |
9.452447150759562E-9 |
1.748737303641852E-11 |
3.026441754096649E-9 |
-9.72089393916876E-12 |
node |
-2.72750136564854E-14 |
6.658840838113567E-14 |
1.748737303641852E-11 |
1.367217073872075E-8 |
-1.364592009724677E-8 |
-2.534199682481138E-10 |
peri |
-1.121939645923493E-12 |
2.720157638547267E-12 |
3.026441754096649E-9 |
-1.364592009724677E-8 |
1.463059970206477E-8 |
2.500776988570161E-10 |
i |
7.995575462892904E-16 |
-1.28221181204475E-15 |
-9.72089393916876E-12 |
-2.534199682481138E-10 |
2.500776988570161E-10 |
5.816779238943682E-11 |
|
Physical Parameter Table
Parameter |
Symbol |
Value |
Units |
Sigma |
Reference |
Notes |
absolute magnitude |
H |
17.5 |
|
n/a |
MPO327079 |
|
|
Alternate Designations
2010 VC28 = 2005 GY201 = 2008 CT90 = 2010 UL88 |
|
|